DW7013 Weather Reports


time (UTC)temp
C
wind
direction
speed
KPH
gust
KPH
rain 1hr
cm
rain 24hr
cm
rain mn
cm
humidity
%
barometer
mb
20260904141218 28 183 6.4 17.7 0.00 0.00 0.00 41 1019.4
20260904140729 28 163 6.4 24.1 0.00 0.00 0.00 41 1019.5
20260904140215 28 135 9.7 24.1 0.00 0.00 0.00 42 1019.6
20260904135232 28 161 9.7 20.9 0.00 0.00 0.00 40 1019.6
20260904134726 28 161 8.0 20.9 0.00 0.00 0.00 40 1019.6
20260904134221 28 159 4.8 20.9 0.00 0.00 0.00 40 1019.7
20260904133724 30 192 3.2 20.9 0.00 0.00 0.00 39 1019.8
20260904133224 29 283 6.4 20.9 0.00 0.00 0.00 40 1019.9
20260904132208 29 355 1.6 17.7 0.00 0.00 0.00 39 1020.0
20260904130210 28 123 1.6 14.5 0.00 0.00 0.00 40 1020.1
20260904125726 28 73 3.2 17.7 0.00 0.00 0.00 40 1020.3
20260904125218 28 320 4.8 17.7 0.00 0.00 0.00 42 1020.4
20260904124223 28 350 4.8 20.9 0.00 0.00 0.00 41 1020.5
20260904123720 27 301 6.4 20.9 0.00 0.00 0.00 42 1020.6
20260904123220 27 165 8.0 20.9 0.00 0.00 0.00 41 1020.6
20260904122716 28 171 6.4 20.9 0.00 0.00 0.00 41 1020.5
20260904122230 27 113 6.4 24.1 0.00 0.00 0.00 43 1020.6
20260904121720 27 86 11.3 24.1 0.00 0.00 0.00 42 1020.6
20260904121224 27 167 12.9 29.0 0.00 0.00 0.00 43 1020.6
20260904120720 27 151 9.7 29.0 0.00 0.00 0.00 43 1020.6
20260904120220 27 163 8.0 29.0 0.00 0.00 0.00 43 1020.6
20260904115726 27 180 8.0 22.5 0.00 0.00 0.00 42 1020.6
20260904114723 27 142 9.7 22.5 0.00 0.00 0.00 43 1020.7
20260904114221 27 94 9.7 20.9 0.00 0.00 0.00 44 1020.8
20260904113723 27 175 9.7 20.9 0.00 0.00 0.00 43 1020.8
20260904113210 26 134 9.7 20.9 0.00 0.00 0.00 44 1020.8
20260904112718 26 159 8.0 20.9 0.00 0.00 0.00 43 1020.9
20260904112217 26 166 8.0 20.9 0.00 0.00 0.00 45 1020.9
20260904111726 26 130 8.0 20.9 0.00 0.00 0.00 44 1021.0
20260904111219 26 167 11.3 19.3 0.00 0.00 0.00 45 1021.1
20260904110729 26 178 11.3 19.3 0.00 0.00 0.00 45 1021.1
20260904110224 26 157 9.7 20.9 0.00 0.00 0.00 45 1021.0
20260904105728 26 162 9.7 22.5 0.00 0.00 0.00 45 1021.2
20260904105212 26 166 11.3 22.5 0.00 0.00 0.00 45 1021.3
20260904104728 25 170 11.3 22.5 0.00 0.00 0.00 46 1021.3
20260904104210 25 130 11.3 22.5 0.00 0.00 0.00 46 1021.4
20260904103720 25 142 11.3 22.5 0.00 0.00 0.00 46 1021.5
20260904103220 25 160 9.7 19.3 0.00 0.00 0.00 46 1021.4
20260904102722 25 106 11.3 19.3 0.00 0.00 0.00 47 1021.5
20260904102214 25 184 9.7 17.7 0.00 0.00 0.00 46 1021.7
20260904100730 25 157 8.0 16.1 0.00 0.00 0.00 47 1021.9
20260904100219 25 102 8.0 17.7 0.00 0.00 0.00 46 1022.0
20260904095224 24 190 8.0 14.5 0.00 0.00 0.00 48 1022.1
20260904094714 24 161 6.4 17.7 0.00 0.00 0.00 48 1022.1
20260904094215 24 144 6.4 17.7 0.00 0.00 0.00 48 1022.2
20260904093713 23 164 8.0 16.1 0.00 0.00 0.00 48 1022.2
20260904093219 23 181 8.0 16.1 0.00 0.00 0.00 49 1022.2
20260904092721 23 178 8.0 16.1 0.00 0.00 0.00 48 1022.3
20260904091711 23 173 6.4 16.1 0.00 0.00 0.00 50 1022.3
20260904091222 23 162 8.0 17.7 0.00 0.00 0.00 50 1022.3
20260904090717 23 113 8.0 17.7 0.00 0.00 0.00 49 1022.3
20260904090220 23 188 6.4 17.7 0.00 0.00 0.00 50 1022.4
20260904085714 22 167 8.0 14.5 0.00 0.00 0.00 51 1022.4
20260904085230 22 140 8.0 14.5 0.00 0.00 0.00 51 1022.5
20260904084720 22 187 6.4 12.9 0.00 0.00 0.00 52 1022.4
20260904084212 22 157 6.4 14.5 0.00 0.00 0.00 51 1022.4
20260904083230 22 176 8.0 16.1 0.00 0.00 0.00 52 1022.4
20260904082220 21 157 8.0 16.1 0.00 0.00 0.00 54 1022.5
20260904081720 21 161 8.0 12.9 0.00 0.00 0.00 54 1022.4
20260904081210 21 178 6.4 12.9 0.00 0.00 0.00 54 1022.4
20260904080744 21 176 3.2 8.0 0.00 0.00 0.00 56 1022.4
20260904080219 21 160 1.6 0.0 0.00 0.00 0.00 57 1022.5
20260904075717 21 167 0.0 0.0 0.00 0.00 0.00 59 1022.5
20260904075211 20 172 0.0 0.0 0.00 0.00 0.00 60 1022.5
20260904074714 20 191 0.0 0.0 0.00 0.00 0.00 61 1022.5
20260904074226 20 208 0.0 0.0 0.00 0.00 0.00 64 1022.6
20260904073216 19 205 0.0 0.0 0.00 0.00 0.00 67 1022.5
20260904072728 18 164 0.0 0.0 0.00 0.00 0.00 67 1022.5
20260904072229 18 85 0.0 0.0 0.00 0.00 0.00 69 1022.7
20260904070711 17 85 0.0 0.0 0.00 0.00 0.00 73 1022.8
20260904070221 16 85 0.0 0.0 0.00 0.00 0.00 75 1022.8
20260904065713 16 85 0.0 0.0 0.00 0.00 0.00 75 1022.8
20260904065215 15 85 0.0 0.0 0.00 0.00 0.00 76 1023.0
20260904064724 15 85 0.0 0.0 0.00 0.00 0.00 79 1023.1
20260904064212 14 85 0.0 0.0 0.00 0.00 0.00 79 1023.1
20260904063723 14 85 0.0 0.0 0.00 0.00 0.00 80 1023.1
20260904063216 13 85 0.0 0.0 0.00 0.00 0.00 82 1023.1
20260904061732 13 59 0.0 0.0 0.00 0.00 0.00 83 1023.1
20260904060724 12 59 0.0 0.0 0.00 0.00 0.00 83 1023.2
20260904060215 12 59 0.0 0.0 0.00 0.00 0.00 83 1023.2
20260904055218 12 59 0.0 0.0 0.00 0.00 0.00 83 1023.2
20260904054719 12 59 0.0 0.0 0.00 0.00 0.00 83 1023.3
20260904053724 12 59 0.0 0.0 0.00 0.00 0.00 83 1023.2
20260904053219 12 59 0.0 0.0 0.00 0.00 0.00 83 1023.2
20260904052726 12 59 0.0 0.0 0.00 0.00 0.00 83 1023.2
20260904052228 12 59 0.0 0.0 0.00 0.00 0.00 82 1023.2
20260904051722 12 59 0.0 0.0 0.00 0.00 0.00 82 1023.1
20260904050748 12 22 0.0 0.0 0.00 0.00 0.00 82 1023.3
20260904050223 12 22 0.0 0.0 0.00 0.00 0.00 82 1023.3
20260904045731 12 27 0.0 0.0 0.00 0.00 0.00 82 1023.3
20260904045223 12 27 0.0 0.0 0.00 0.00 0.00 82 1023.4
20260904044729 12 27 0.0 0.0 0.00 0.00 0.00 82 1023.3
20260904044220 12 27 0.0 0.0 0.00 0.00 0.00 81 1023.3
20260904043717 12 27 0.0 0.0 0.00 0.00 0.00 81 1023.3
20260904043221 12 27 0.0 0.0 0.00 0.00 0.00 81 1023.3
20260904042222 12 27 0.0 0.0 0.00 0.00 0.00 81 1023.4
20260904041729 12 27 0.0 0.0 0.00 0.00 0.00 81 1023.4
20260904041211 12 27 0.0 0.0 0.00 0.00 0.00 81 1023.4
20260904040714 12 27 0.0 0.0 0.00 0.00 0.00 81 1023.4
20260904040222 12 27 0.0 0.0 0.00 0.00 0.00 81 1023.6
20260904035225 13 27 0.0 0.0 0.00 0.00 0.00 81 1023.6
20260904034714 13 27 0.0 0.0 0.00 0.00 0.00 80 1023.7
20260904034214 13 27 0.0 0.0 0.00 0.00 0.00 80 1023.8
20260904033219 13 27 0.0 0.0 0.00 0.00 0.00 80 1023.8
20260904032708 13 27 0.0 0.0 0.00 0.00 0.00 80 1023.9
20260904032218 13 27 0.0 0.0 0.00 0.00 0.00 80 1023.9
20260904031722 13 27 0.0 0.0 0.00 0.00 0.00 80 1023.9
20260904030728 13 25 0.0 0.0 0.00 0.00 0.00 80 1023.8
20260904030218 13 355 0.0 0.0 0.00 0.00 0.00 79 1023.8
20260904025720 13 44 0.0 0.0 0.00 0.00 0.00 79 1023.8
20260904024720 13 51 0.0 0.0 0.00 0.00 0.00 79 1023.9
20260904024231 13 51 0.0 0.0 0.00 0.00 0.00 79 1024.0
20260904023723 13 51 0.0 0.0 0.00 0.00 0.00 79 1024.1
20260904022718 13 355 0.0 0.0 0.00 0.00 0.00 79 1024.3
20260904021749 13 342 0.0 0.0 0.00 0.00 0.00 78 1024.1
20260904021213 13 342 0.0 0.0 0.00 0.00 0.00 78 1024.4
20260904020716 13 90 0.0 0.0 0.00 0.00 0.00 78 1024.3
20260904020237 13 90 0.0 0.0 0.00 0.00 0.00 78 1024.3
20260904015731 13 96 0.0 0.0 0.00 0.00 0.00 78 1024.3
20260904015218 13 126 0.0 0.0 0.00 0.00 0.00 78 1024.3
20260904014722 13 40 0.0 0.0 0.00 0.00 0.00 78 1024.3
20260904013223 13 19 0.0 0.0 0.00 0.00 0.00 78 1024.5
20260904012721 13 19 0.0 0.0 0.00 0.00 0.00 77 1024.6
20260904012221 13 19 0.0 0.0 0.00 0.00 0.00 77 1024.6
20260904011208 14 269 0.0 0.0 0.00 0.00 0.00 77 1024.6
20260904010217 14 116 0.0 0.0 0.00 0.00 0.00 76 1024.6
20260904005727 14 105 0.0 0.0 0.00 0.00 0.00 76 1024.6
20260904005229 14 105 0.0 0.0 0.00 0.00 0.00 77 1024.6
20260904004727 14 105 0.0 0.0 0.00 0.00 0.00 76 1024.6
20260904004219 14 66 0.0 0.0 0.00 0.00 0.00 76 1024.7
20260904003719 14 67 0.0 0.0 0.00 0.00 0.00 76 1024.8
20260904003223 14 78 0.0 0.0 0.00 0.00 0.00 76 1024.8
20260904002714 14 215 0.0 0.0 0.00 0.00 0.00 76 1024.8
20260904002221 14 215 0.0 0.0 0.00 0.00 0.00 76 1024.9
20260904001718 14 217 0.0 0.0 0.00 0.00 0.00 76 1024.9
20260904001222 14 219 0.0 0.0 0.00 0.00 0.00 76 1025.0
20260904000725 14 63 0.0 0.0 0.00 0.00 0.00 76 1025.0
20260904000221 14 39 0.0 0.0 0.00 0.00 0.00 76 1025.0
20260903235727 14 0 0.0 0.0 0.00 0.00 0.00 76 1024.9
20260903235215 14 249 0.0 0.0 0.00 0.00 0.00 76 1024.9
20260903234716 15 249 0.0 0.0 0.00 0.00 0.00 75 1024.9
20260903234234 15 249 0.0 0.0 0.00 0.00 0.00 75 1024.9
20260903233721 15 140 0.0 0.0 0.00 0.00 0.00 76 1024.9
20260903232222 15 14 0.0 0.0 0.00 0.00 0.00 75 1025.1
20260903231707 15 14 0.0 0.0 0.00 0.00 0.00 75 1025.1
20260903230716 15 355 0.0 0.0 0.00 0.00 0.00 75 1025.2
20260903225718 15 350 0.0 0.0 0.00 0.00 0.00 75 1025.2
20260903225218 15 350 0.0 0.0 0.00 0.00 0.00 75 1025.3
20260903224722 15 350 0.0 0.0 0.00 0.00 0.00 75 1025.2
20260903223717 15 346 0.0 0.0 0.00 0.00 0.00 74 1025.3
20260903223218 15 329 0.0 0.0 0.00 0.00 0.00 74 1025.3
20260903222226 15 329 0.0 0.0 0.00 0.00 0.00 74 1025.3
20260903221723 15 329 0.0 0.0 0.00 0.00 0.00 74 1025.2
20260903220743 15 174 0.0 0.0 0.00 0.00 0.00 73 1025.2
20260903220211 15 12 0.0 0.0 0.00 0.00 0.00 73 1025.2
20260903215720 15 12 0.0 0.0 0.00 0.00 0.00 73 1025.2
20260903215226 15 12 0.0 0.0 0.00 0.00 0.00 72 1025.2
20260903213714 16 59 0.0 0.0 0.00 0.00 0.00 72 1025.2
20260903213217 16 329 0.0 0.0 0.00 0.00 0.00 72 1025.2
20260903212728 16 329 0.0 0.0 0.00 0.00 0.00 71 1025.2
20260903212223 16 329 0.0 0.0 0.00 0.00 0.00 71 1025.2
20260903210720 16 38 0.0 0.0 0.00 0.00 0.00 70 1025.4
20260903210227 16 17 0.0 0.0 0.00 0.00 0.00 70 1025.4
20260903205720 16 16 0.0 0.0 0.00 0.00 0.00 69 1025.4
20260903205222 16 5 0.0 0.0 0.00 0.00 0.00 69 1025.4
20260903204720 16 75 0.0 0.0 0.00 0.00 0.00 69 1025.3
20260903204242 16 76 0.0 0.0 0.00 0.00 0.00 69 1025.3
20260903203709 16 112 0.0 0.0 0.00 0.00 0.00 68 1025.3
20260903203232 16 100 0.0 0.0 0.00 0.00 0.00 68 1025.3
20260903202727 16 100 0.0 0.0 0.00 0.00 0.00 68 1025.3
20260903202222 17 344 0.0 0.0 0.00 0.00 0.00 68 1025.3
20260903201723 17 344 0.0 0.0 0.00 0.00 0.00 67 1025.3
20260903201214 17 338 0.0 0.0 0.00 0.00 0.00 67 1025.3
20260903200212 17 338 0.0 0.0 0.00 0.00 0.00 66 1025.3
20260903195719 17 338 0.0 0.0 0.00 0.00 0.00 66 1025.3
20260903195212 17 338 0.0 0.0 0.00 0.00 0.00 66 1025.3
20260903194721 17 338 0.0 0.0 0.00 0.00 0.00 65 1025.3
20260903194227 17 338 0.0 0.0 0.00 0.00 0.00 65 1025.3
20260903193714 17 338 0.0 0.0 0.00 0.00 0.00 64 1025.3
20260903193219 18 338 0.0 0.0 0.00 0.00 0.00 64 1025.3
20260903192715 18 338 0.0 0.0 0.00 0.00 0.00 63 1025.3
20260903192213 18 348 0.0 0.0 0.00 0.00 0.00 62 1025.3
20260903191721 18 355 0.0 0.0 0.00 0.00 0.00 61 1025.2
20260903190727 18 327 0.0 0.0 0.00 0.00 0.00 61 1025.2
20260903190221 19 5 0.0 6.4 0.00 0.00 0.00 59 1025.1
20260903185719 19 315 0.0 6.4 0.00 0.00 0.00 59 1025.1
20260903185226 20 344 0.0 6.4 0.00 0.00 0.00 58 1025.0
20260903184715 20 34 0.0 0.0 0.00 0.00 0.00 56 1024.9
20260903184224 20 344 0.0 0.0 0.00 0.00 0.00 57 1024.8
20260903183725 20 337 0.0 0.0 0.00 0.00 0.00 56 1024.8
20260903182726 20 32 0.0 6.4 0.00 0.00 0.00 55 1024.7
20260903182214 20 11 0.0 8.0 0.00 0.00 0.00 54 1024.7
20260903180750 20 344 1.6 11.3 0.00 0.00 0.00 54 1024.6
20260903180226 20 344 0.0 4.8 0.00 0.00 0.00 54 1024.5
20260903175726 20 331 0.0 0.0 0.00 0.00 0.00 53 1024.4
20260903175223 20 32 0.0 0.0 0.00 0.00 0.00 55 1024.4
20260903174718 21 21 0.0 0.0 0.00 0.00 0.00 55 1024.3
20260903174213 21 0 0.0 0.0 0.00 0.00 0.00 56 1024.4
20260903173224 21 38 0.0 0.0 0.00 0.00 0.00 54 1024.3
20260903172718 21 355 0.0 0.0 0.00 0.00 0.00 53 1024.4
20260903172214 22 334 0.0 0.0 0.00 0.00 0.00 52 1024.3
20260903171731 22 334 0.0 0.0 0.00 0.00 0.00 51 1024.4
20260903170223 22 345 0.0 4.8 0.00 0.00 0.00 49 1024.3
20260903165719 22 236 0.0 4.8 0.00 0.00 0.00 47 1024.3
20260903165225 23 323 0.0 4.8 0.00 0.00 0.00 45 1024.3
20260903164718 23 340 0.0 0.0 0.00 0.00 0.00 43 1024.4
20260903164227 23 76 0.0 11.3 0.00 0.00 0.00 45 1024.3
20260903163725 23 351 0.0 14.5 0.00 0.00 0.00 45 1024.3
20260903163227 23 342 3.2 14.5 0.00 0.00 0.00 44 1024.1
20260903162716 23 344 3.2 14.5 0.00 0.00 0.00 42 1024.3
20260903162218 23 34 1.6 14.5 0.00 0.00 0.00 42 1024.3
20260903161219 23 323 3.2 14.5 0.00 0.00 0.00 43 1024.3
20260903160727 23 349 1.6 16.1 0.00 0.00 0.00 43 1024.4
20260903160223 23 119 1.6 16.1 0.00 0.00 0.00 41 1024.3
20260903155753 24 126 3.2 16.1 0.00 0.00 0.00 41 1024.4
20260903155215 24 315 8.0 16.1 0.00 0.00 0.00 41 1024.4
20260903154712 24 341 9.7 16.1 0.00 0.00 0.00 40 1024.5
20260903154235 24 323 8.0 16.1 0.00 0.00 0.00 40 1024.5
20260903153715 24 349 3.2 12.9 0.00 0.00 0.00 40 1024.5
20260903153216 24 321 1.6 16.1 0.00 0.00 0.00 39 1024.5
20260903152712 24 251 4.8 16.1 0.00 0.00 0.00 40 1024.4
20260903152211 24 270 4.8 16.1 0.00 0.00 0.00 39 1024.4
20260903151725 24 313 3.2 17.7 0.00 0.00 0.00 38 1024.4
20260903151220 24 266 4.8 19.3 0.00 0.00 0.00 38 1024.4
20260903145719 24 259 9.7 20.9 0.00 0.00 0.00 38 1024.4
20260903145216 24 300 8.0 16.1 0.00 0.00 0.00 38 1024.5
20260903144722 24 309 8.0 16.1 0.00 0.00 0.00 39 1024.4
20260903143717 24 328 8.0 16.1 0.00 0.00 0.00 41 1024.4
20260903143228 24 326 6.4 14.5 0.00 0.00 0.00 40 1024.4
20260903142714 24 288 6.4 19.3 0.00 0.00 0.00 40 1024.5
20260903142226 23 302 6.4 19.3 0.00 0.00 0.00 41 1024.5
20260903141727 23 305 4.8 19.3 0.00 0.00 0.00 41 1024.5